THORAD AGENA D DEB, 4612

Orbit data source: Space-Track

THORAD AGENA D DEB, 4612 is space debris in SSO originally from a launch on Wed, 08 Apr 1970 UTC launched from the Air Force Western Test Range (AFWTR). Debris objects in space refer to the collection of defunct objects orbiting the Earth. Examples of debris include non-operational satellites, rocket bodies, and fragments generated from explosions, collisions, or faulty payload assembly.

Loading next visibility...
Identifier
4612, 1970-025Q
Orbit
SSO
Country
Flag of USUS
Related business
Manufacturer
Unknown
Mission
Spacecraft
Bus & Motor
Unknown
Mass
Unknown
Launch date (UTC)
1970-04-08 (56 years ago)
Launch vehicle
Unknown
Launch site
Air Force Western Test Range (AFWTR)
Object type
Payload
Rocket body
Debris
Shape & HBR
Unknown shape, 0.1 m
Radar Cross Section
Small (<0.1 m²)

Expand to show TLE details & history
Last TLE update: 19 hours ago

TLE from 19 hours ago
0 THORAD AGENA D DEB
1 04612U 70025Q   26072.31659305  .00001348  00000-0  86214-3 0  9996
2 04612  99.6545 345.9150 0081086 227.3842 132.0465 14.03792768831472
Epoch: 2026-03-13T07:35Z
TLE epoch observation values (Epoch: 2026-03-13T07:35:53.639Z)
Latitude
-0.00005°
Longitude
60.98764°
Altitude
923.24 km
Speed
7.37 km/s
True Right ascension
23h 03m 39s
True Declination
0° 00' 00"
Sunlit
Object was in daylight at epoch
Visualization orbit readout
Latitude
Unknown
Longitude
Unknown
Altitude
Unknown
Speed
Unknown
Apparent Right ascension
Unknown
Apparent Declination
Unknown
Sunlit
N/A
Visualization observer readout
Local Sidereal Time
07:26:34
Azimuth
Unknown
Elevation
Unknown
Doppler factor
Unknown
Orbital elements
Apogee altitude
936.755 km
Perigee altitude
819.082 km
Semi-major axis
7,256.055 km
Eccentricity
0.00811
Inclination
99.6545°
RAAN
345.915°
Arg. of periapsis
227.3842°
True anomaly
132.73184°
Mean anomaly
132.0465°
Eccentric anomaly
132.38963°
Mean motion
3.5115 °/min
Orbital period
102.52 mins
BSTAR
0.00086214
Loading maneuver chart data...
Computing Atmospheric mass density...

Documentation

Showing up to 5 results
|